Date String (YYYY-MM-DD hh:mm:ss) UTC,Instrument flags,Ambient pressure (hPa),Sample flow (lpm),Bypass flow (lpm),Sample temperature (°C),Ambient temperature (°C),ASC tube jacket temperature (°C),LED temperature (°C),Box temperature (°C),Sample RH (%),Span deviation,Mass concentration (μg/m³),Mass concentration (μg/m³),Mass concentration (μg/m³)
DateTimeUTC,F1_M11,P_M11,Q1_M11,Q2_M11,T1_M11,T2_M11,T3_M11,T4_M11,T5_M11,U1_M11,ZSPAN_M11,X0_M11,X2_M11,X1_M11
2022-12-16 23:00:00,,0823.7,4.96,0.00,20.9,18.9,00.0,30.0,22.3,04.3,0000.0,0004.66,0001.69,0001.32
2022-12-16 23:01:00,,0823.7,5.05,0.00,20.9,19.1,00.0,30.0,22.3,04.2,0000.0,0004.86,0001.70,0001.32
2022-12-16 23:02:00,,0823.7,4.99,0.00,21.0,20.4,00.0,29.9,22.7,04.2,0000.0,0004.22,0001.73,0001.34
2022-12-16 23:03:00,,0823.7,5.00,0.00,21.1,21.4,00.0,29.9,23.0,04.2,0000.0,0004.18,0001.75,0001.34
2022-12-16 23:04:00,,0823.6,4.99,0.00,21.1,21.0,00.0,30.0,22.9,04.2,0000.0,0004.43,0001.79,0001.36
2022-12-16 23:05:00,,0823.7,5.01,0.00,21.1,20.3,00.0,30.0,22.8,04.1,0000.0,0004.46,0001.81,0001.37
2022-12-16 23:06:00,,0823.7,4.99,0.00,21.0,19.8,00.0,30.0,22.6,04.1,0000.0,0004.44,0001.79,0001.37
2022-12-16 23:07:00,,0823.7,4.99,0.00,21.0,19.3,00.0,30.0,22.5,04.1,0000.0,0004.49,0001.79,0001.36
2022-12-16 23:08:00,,0823.7,5.01,0.00,20.9,19.0,00.0,30.0,22.3,04.1,0000.0,0004.57,0001.81,0001.37
2022-12-16 23:09:00,,0823.7,5.01,0.00,20.8,18.7,00.0,29.9,22.3,04.2,0000.0,0004.58,0001.81,0001.36
2022-12-16 23:10:00,,0823.7,4.97,0.00,20.8,18.8,00.0,29.9,22.2,04.2,0000.0,0004.04,0001.79,0001.36
2022-12-16 23:11:00,,0823.6,5.03,0.00,20.8,20.0,00.0,29.8,22.5,04.2,0000.0,0003.65,0001.76,0001.36
2022-12-16 23:12:00,,0823.6,4.96,0.00,21.0,21.1,00.0,29.8,22.9,04.2,0000.0,0003.37,0001.72,0001.36
2022-12-16 23:13:00,,0823.6,5.01,0.00,21.0,20.8,00.0,29.9,22.8,04.2,0000.0,0003.31,0001.70,0001.35
2022-12-16 23:14:00,,0823.6,5.02,0.00,21.0,20.2,00.0,29.9,22.7,04.2,0000.0,0002.75,0001.68,0001.35
2022-12-16 23:15:00,,0823.6,4.97,0.00,21.0,19.7,00.0,29.9,22.5,04.2,0000.0,0002.54,0001.70,0001.34
2022-12-16 23:16:00,,0823.6,5.04,0.00,20.9,19.3,00.0,29.9,22.4,04.2,0000.0,0002.52,0001.69,0001.35
2022-12-16 23:17:00,,0823.6,4.96,0.00,20.8,19.0,00.0,29.9,22.3,04.2,0000.0,0002.50,0001.70,0001.37
2022-12-16 23:18:00,,0823.6,5.05,0.00,20.8,18.7,00.0,29.9,22.2,04.3,0000.0,0002.41,0001.69,0001.38
2022-12-16 23:19:00,,0823.6,4.96,0.00,20.7,18.8,00.0,29.8,22.2,04.2,0000.0,0002.29,0001.67,0001.38
2022-12-16 23:20:00,,0823.7,5.04,0.00,20.8,20.1,00.0,29.8,22.5,04.2,0000.0,0002.22,0001.65,0001.38
2022-12-16 23:21:00,,0823.7,4.97,0.00,21.0,21.2,00.0,29.8,22.8,04.2,0000.0,0002.21,0001.64,0001.39
2022-12-16 23:22:00,,0823.6,5.00,0.00,21.0,21.0,00.0,29.8,22.9,04.2,0000.0,0002.27,0001.67,0001.41
2022-12-16 23:23:00,,0823.7,5.01,0.00,21.0,20.4,00.0,29.8,22.7,04.2,0000.0,0002.34,0001.73,0001.42
2022-12-16 23:24:00,,0823.6,5.01,0.00,21.0,19.9,00.0,29.9,22.6,04.2,0000.0,0002.38,0001.75,0001.43
2022-12-16 23:25:00,,0823.6,4.97,0.00,20.9,19.4,00.0,29.9,22.4,04.2,0000.0,0002.38,0001.74,0001.44
2022-12-16 23:26:00,,0823.6,5.03,0.00,20.8,19.0,00.0,29.9,22.2,04.2,0000.0,0002.45,0001.77,0001.46
2022-12-16 23:27:00,,0823.6,4.96,0.00,20.8,18.7,00.0,29.8,22.1,04.2,0000.0,0002.37,0001.74,0001.46
2022-12-16 23:28:00,,0823.6,5.03,0.00,20.7,18.6,00.0,29.8,22.1,04.2,0000.0,0002.45,0001.77,0001.46
2022-12-16 23:29:00,,0823.6,4.98,0.00,20.7,19.9,00.0,29.7,22.4,04.2,0000.0,0002.53,0001.79,0001.46
2022-12-16 23:30:00,,0823.7,5.05,0.00,20.9,21.1,00.0,29.7,22.7,04.1,0000.0,0002.57,0001.80,0001.45
2022-12-16 23:31:00,,0823.6,4.94,0.00,21.0,21.5,00.0,29.7,22.9,04.1,0000.0,0002.55,0001.80,0001.45
2022-12-16 23:32:00,,0823.7,5.05,0.00,21.0,20.7,00.0,29.8,22.8,04.1,0000.0,0002.55,0001.80,0001.46
2022-12-16 23:33:00,,0823.6,4.98,0.00,21.0,20.0,00.0,29.8,22.6,04.1,0000.0,0002.50,0001.77,0001.44
2022-12-16 23:34:00,,0823.6,4.97,0.00,20.9,19.5,00.0,29.8,22.4,04.2,0000.0,0002.74,0001.79,0001.43
2022-12-16 23:35:00,,0823.6,5.05,0.00,20.8,19.1,00.0,29.8,22.3,04.2,0000.0,0003.99,0001.80,0001.42
2022-12-16 23:36:00,,0823.6,4.96,0.00,20.8,18.8,00.0,29.8,22.2,04.2,0000.0,0004.11,0001.78,0001.41
2022-12-16 23:37:00,,0823.6,5.04,0.00,20.7,18.5,00.0,29.8,22.1,04.2,0000.0,0004.01,0001.74,0001.40
2022-12-16 23:38:00,,0823.6,4.97,0.00,20.6,18.9,00.0,29.7,22.1,04.3,0000.0,0004.12,0001.77,0001.40
2022-12-16 23:39:00,,0823.6,5.05,0.00,20.8,20.3,00.0,29.7,22.5,04.3,0000.0,0004.15,0001.77,0001.40
2022-12-16 23:40:00,,0823.6,4.96,0.00,20.9,21.1,00.0,29.7,22.8,04.2,0000.0,0004.21,0001.80,0001.40
2022-12-16 23:41:00,,0823.5,5.03,0.00,20.9,20.5,00.0,29.7,22.6,04.2,0000.0,0004.39,0001.84,0001.40
2022-12-16 23:42:00,,0823.5,4.98,0.00,20.9,19.9,00.0,29.8,22.5,04.2,0000.0,0004.51,0001.88,0001.41
2022-12-16 23:43:00,,0823.5,4.96,0.00,20.8,19.4,00.0,29.8,22.3,04.3,0000.0,0004.62,0001.90,0001.41
2022-12-16 23:44:00,,0823.5,5.04,0.00,20.7,19.0,00.0,29.8,22.1,04.2,0000.0,0004.65,0001.91,0001.42
2022-12-16 23:45:00,,0823.5,4.96,0.00,20.7,18.7,00.0,29.7,22.0,04.2,0000.0,0004.37,0001.86,0001.43
2022-12-16 23:46:00,,0823.5,5.04,0.00,20.6,18.5,00.0,29.7,22.0,04.3,0000.0,0003.43,0001.89,0001.44
2022-12-16 23:47:00,,0823.4,4.98,0.00,20.6,19.6,00.0,29.6,22.2,04.3,0000.0,0003.65,0001.95,0001.45
2022-12-16 23:48:00,,0823.5,5.00,0.00,20.8,20.8,00.0,29.6,22.6,04.2,0000.0,0003.69,0001.97,0001.45
2022-12-16 23:49:00,,0823.5,5.01,0.00,20.9,21.6,00.0,29.6,22.8,04.1,0000.0,0003.64,0001.96,0001.47
2022-12-16 23:50:00,,0823.6,4.99,0.00,20.9,20.9,00.0,29.7,22.7,04.2,0000.0,0003.79,0002.00,0001.48
2022-12-16 23:51:00,,0823.5,4.99,0.00,20.9,20.3,00.0,29.7,22.6,04.3,0000.0,0003.80,0002.01,0001.52
2022-12-16 23:52:00,,0823.4,5.03,0.00,20.9,19.7,00.0,29.8,22.4,04.3,0000.0,0003.69,0002.04,0001.56
2022-12-16 23:53:00,,0823.4,4.97,0.00,20.8,19.2,00.0,29.8,22.2,04.2,0000.0,0003.69,0002.05,0001.58
2022-12-16 23:54:00,,0823.4,5.05,0.00,20.7,18.8,00.0,29.7,22.1,04.2,0000.0,0003.76,0002.11,0001.61
2022-12-16 23:55:00,,0823.4,4.96,0.00,20.6,18.5,00.0,29.7,22.0,04.2,0000.0,0003.86,0002.14,0001.63
2022-12-16 23:56:00,,0823.3,5.06,0.00,20.6,18.7,00.0,29.7,22.0,04.2,0000.0,0004.04,0002.16,0001.65
2022-12-16 23:57:00,,0823.4,4.95,0.00,20.7,20.1,00.0,29.6,22.3,04.2,0000.0,0003.80,0002.17,0001.67
2022-12-16 23:58:00,,0823.3,5.01,0.00,20.8,21.3,00.0,29.6,22.7,04.1,0000.0,0003.50,0002.13,0001.70
2022-12-16 23:59:00,,0823.4,5.00,0.00,20.9,21.4,00.0,29.7,22.8,04.1,0000.0,0003.49,0002.14,0001.73
